Date String (YYYY-MM-DD hh:mm:ss) UTC,Instrument flags,absolute air pressure of the measurement (hPa),sample flow rate (lpm),inlet stack bypass flow (lpm),air temperature of the measurement (°C),ambient temperature measured by the external sensor (°C),aerosol sample conditioner tube jacket temperature (°C),OPC LED temperature (°C),internal box temperature (°C),relative humidity of the measurement (%),span deviation,mass concentration of particles derived from Lorenz-Mie calculation of OPC scattering (μg/m³),mass concentration of particles derived from Lorenz-Mie calculation of OPC scattering (μg/m³),mass concentration of particles derived from Lorenz-Mie calculation of OPC scattering (μg/m³)
DateTimeUTC,F1_M11,P_M11,Q1_M11,Q2_M11,T1_M11,T2_M11,T3_M11,T4_M11,T5_M11,U1_M11,ZSPAN_M11,X0_M11,X2_M11,X1_M11
2023-08-05 00:00:00,SystemResetWarning,0830.9,5.00,000.00,028.8,027.0,000.0,037.0,030.5,16.8,0000.0,0007.70,0002.71,0001.91
2023-08-05 00:01:00,SystemResetWarning,0830.9,5.01,000.00,028.8,027.3,000.0,037.1,030.6,17.2,0000.0,0007.42,0002.73,0001.92
2023-08-05 00:02:00,SystemResetWarning,0830.9,5.01,000.00,028.9,027.6,000.0,037.1,030.7,17.1,0000.0,0007.42,0002.73,0001.90
2023-08-05 00:03:00,SystemResetWarning,0831.0,4.99,000.00,028.9,027.0,000.0,037.1,030.6,16.8,0000.0,0007.21,0002.65,0001.90
2023-08-05 00:04:00,SystemResetWarning,0830.9,4.98,000.00,028.9,025.4,000.0,037.0,030.3,16.8,0000.0,0006.82,0002.55,0001.90
2023-08-05 00:05:00,SystemResetWarning,0830.9,5.02,000.00,028.8,024.9,000.0,036.9,030.2,16.6,0000.0,0005.94,0002.53,0001.88
2023-08-05 00:06:00,SystemResetWarning,0830.9,5.00,000.00,028.7,025.2,000.0,036.9,030.1,17.1,0000.0,0005.28,0002.50,0001.85
2023-08-05 00:07:00,SystemResetWarning,0831.0,5.00,000.00,028.7,025.6,000.0,037.0,030.2,17.2,0000.0,0005.31,0002.51,0001.83
2023-08-05 00:08:00,SystemResetWarning,0830.9,5.00,000.00,028.7,026.1,000.0,037.0,030.2,17.1,0000.0,0005.55,0002.58,0001.83
2023-08-05 00:09:00,SystemResetWarning,0831.0,5.00,000.00,028.7,026.5,000.0,037.0,030.4,16.9,0000.0,0005.74,0002.62,0001.84
2023-08-05 00:10:00,SystemResetWarning,0831.0,5.00,000.00,028.8,026.9,000.0,037.1,030.5,16.7,0000.0,0005.63,0002.60,0001.83
2023-08-05 00:11:00,SystemResetWarning,0831.0,5.00,000.00,028.9,027.3,000.0,037.1,030.6,17.1,0000.0,0005.64,0002.60,0001.81
2023-08-05 00:12:00,SystemResetWarning,0831.0,5.00,000.00,028.9,027.6,000.0,037.1,030.7,17.4,0000.0,0005.69,0002.59,0001.79
2023-08-05 00:13:00,SystemResetWarning,0831.0,4.98,000.00,029.0,027.2,000.0,037.1,030.7,16.3,0000.0,0005.57,0002.58,0001.79
2023-08-05 00:14:00,SystemResetWarning,0830.9,5.00,000.00,028.9,025.5,000.0,037.0,030.3,16.5,0000.0,0006.50,0002.56,0001.77
2023-08-05 00:15:00,SystemResetWarning,0830.9,5.00,000.00,028.8,024.9,000.0,036.9,030.2,17.2,0000.0,0006.60,0002.52,0001.75
2023-08-05 00:16:00,SystemResetWarning,0831.0,5.01,000.00,028.8,025.2,000.0,036.9,030.1,17.7,0000.0,0006.86,0002.50,0001.74
2023-08-05 00:17:00,SystemResetWarning,0830.9,5.01,000.00,028.7,025.6,000.0,037.0,030.1,17.8,0000.0,0006.73,0002.47,0001.74
2023-08-05 00:18:00,SystemResetWarning,0830.9,4.99,000.00,028.7,026.0,000.0,037.0,030.2,18.1,0000.0,0006.72,0002.46,0001.73
2023-08-05 00:19:00,SystemResetWarning,0831.0,5.00,000.00,028.8,026.4,000.0,037.0,030.3,18.1,0000.0,0006.58,0002.42,0001.74
2023-08-05 00:20:00,SystemResetWarning,0831.0,5.00,000.00,028.8,026.9,000.0,037.1,030.5,17.9,0000.0,0006.38,0002.34,0001.72
2023-08-05 00:21:00,SystemResetWarning,0831.0,5.01,000.00,028.9,027.2,000.0,037.1,030.6,17.3,0000.0,0007.12,0002.30,0001.71
2023-08-05 00:22:00,SystemResetWarning,0831.0,5.00,000.00,028.9,027.5,000.0,037.2,030.7,17.4,0000.0,0008.05,0002.26,0001.71
2023-08-05 00:23:00,SystemResetWarning,0831.0,4.99,000.00,029.0,027.3,000.0,037.1,030.7,17.4,0000.0,0008.08,0002.20,0001.69
2023-08-05 00:24:00,SystemResetWarning,0831.1,5.00,000.00,028.9,025.7,000.0,037.0,030.4,16.8,0000.0,0008.21,0002.19,0001.68
2023-08-05 00:25:00,SystemResetWarning,0831.1,5.00,000.00,028.9,024.9,000.0,036.9,030.2,17.1,0000.0,0008.38,0002.23,0001.68
2023-08-05 00:26:00,SystemResetWarning,0831.0,5.01,000.00,028.8,025.1,000.0,036.9,030.1,17.2,0000.0,0007.92,0002.22,0001.68
2023-08-05 00:27:00,SystemResetWarning,0831.0,5.00,000.00,028.7,025.5,000.0,037.0,030.1,17.4,0000.0,0007.46,0002.21,0001.68
2023-08-05 00:28:00,SystemResetWarning,0831.1,5.00,000.00,028.7,026.0,000.0,037.0,030.2,17.2,0000.0,0007.55,0002.27,0001.68
2023-08-05 00:29:00,SystemResetWarning,0831.1,5.01,000.00,028.8,026.4,000.0,037.1,030.3,17.2,0000.0,0007.56,0002.28,0001.69
2023-08-05 00:30:00,SystemResetWarning,0831.1,5.00,000.00,028.8,026.8,000.0,037.1,030.4,17.2,0000.0,0007.55,0002.28,0001.68
2023-08-05 00:31:00,SystemResetWarning,0831.1,5.00,000.00,028.9,027.2,000.0,037.1,030.5,16.8,0000.0,0007.60,0002.30,0001.69
2023-08-05 00:32:00,SystemResetWarning,0831.1,5.00,000.00,028.9,027.5,000.0,037.1,030.6,17.1,0000.0,0007.09,0002.31,0001.70
2023-08-05 00:33:00,SystemResetWarning,0831.2,5.00,000.00,029.0,027.5,000.0,037.1,030.7,17.1,0000.0,0005.41,0002.31,0001.71
2023-08-05 00:34:00,SystemResetWarning,0831.1,4.98,000.00,028.9,026.0,000.0,037.0,030.5,17.1,0000.0,0005.33,0002.36,0001.72
2023-08-05 00:35:00,SystemResetWarning,0831.1,5.02,000.00,028.9,024.8,000.0,037.0,030.3,17.4,0000.0,0006.20,0002.38,0001.74
2023-08-05 00:36:00,SystemResetWarning,0831.1,5.01,000.00,028.8,025.0,000.0,036.9,030.2,17.4,0000.0,0005.60,0002.35,0001.75
2023-08-05 00:37:00,SystemResetWarning,0831.1,5.00,000.00,028.7,025.4,000.0,037.0,030.1,17.4,0000.0,0005.54,0002.36,0001.77
2023-08-05 00:38:00,SystemResetWarning,0831.2,5.00,000.00,028.7,025.9,000.0,037.0,030.2,17.7,0000.0,0005.38,0002.39,0001.78
2023-08-05 00:39:00,SystemResetWarning,0831.2,5.00,000.00,028.8,026.3,000.0,037.1,030.4,18.0,0000.0,0005.29,0002.39,0001.78
2023-08-05 00:40:00,SystemResetWarning,0831.1,5.00,000.00,028.8,026.8,000.0,037.1,030.5,18.1,0000.0,0006.25,0002.36,0001.78
2023-08-05 00:41:00,SystemResetWarning,0831.1,4.99,000.00,028.9,027.1,000.0,037.1,030.5,17.5,0000.0,0006.31,0002.35,0001.78
2023-08-05 00:42:00,SystemResetWarning,0831.1,5.00,000.00,028.9,027.5,000.0,037.1,030.6,17.3,0000.0,0006.91,0002.32,0001.79
2023-08-05 00:43:00,SystemResetWarning,0831.2,4.99,000.00,028.9,026.9,000.0,037.1,030.5,17.1,0000.0,0007.53,0002.36,0001.79
2023-08-05 00:44:00,SystemResetWarning,0831.2,5.00,000.00,028.9,025.2,000.0,037.0,030.2,17.5,0000.0,0007.71,0002.43,0001.79
2023-08-05 00:45:00,SystemResetWarning,0831.2,5.02,000.00,028.8,024.8,000.0,036.9,030.1,17.7,0000.0,0007.73,0002.40,0001.79
2023-08-05 00:46:00,SystemResetWarning,0831.2,5.00,000.00,028.7,025.1,000.0,036.9,030.1,17.4,0000.0,0007.15,0002.37,0001.79
2023-08-05 00:47:00,SystemResetWarning,0831.2,5.00,000.00,028.7,025.5,000.0,037.0,030.1,17.7,0000.0,0006.65,0002.36,0001.78
2023-08-05 00:48:00,SystemResetWarning,0831.2,5.00,000.00,028.7,026.0,000.0,037.0,030.2,17.8,0000.0,0006.55,0002.37,0001.76
2023-08-05 00:49:00,SystemResetWarning,0831.2,5.00,000.00,028.7,026.5,000.0,037.0,030.3,17.7,0000.0,0006.84,0002.35,0001.75
2023-08-05 00:50:00,SystemResetWarning,0831.2,5.00,000.00,028.8,026.9,000.0,037.1,030.5,17.6,0000.0,0007.35,0002.35,0001.75
2023-08-05 00:51:00,SystemResetWarning,0831.3,5.00,000.00,028.8,027.2,000.0,037.1,030.6,17.7,0000.0,0007.48,0002.41,0001.76
2023-08-05 00:52:00,SystemResetWarning,0831.3,5.00,000.00,028.9,027.5,000.0,037.1,030.7,17.6,0000.0,0007.31,0002.45,0001.76
2023-08-05 00:53:00,SystemResetWarning,0831.3,4.99,000.00,028.9,027.7,000.0,037.2,030.8,17.7,0000.0,0006.97,0002.50,0001.76
2023-08-05 00:54:00,SystemResetWarning,0831.3,4.99,000.00,029.0,026.4,000.0,037.1,030.6,18.0,0000.0,0006.06,0002.47,0001.75
2023-08-05 00:55:00,SystemResetWarning,0831.2,5.00,000.00,028.9,024.9,000.0,037.0,030.3,18.1,0000.0,0005.64,0002.41,0001.75
2023-08-05 00:56:00,SystemResetWarning,0831.2,5.01,000.00,028.8,024.9,000.0,036.9,030.1,18.0,0000.0,0006.57,0002.42,0001.75
2023-08-05 00:57:00,SystemResetWarning,0831.2,5.01,000.00,028.8,025.2,000.0,037.0,030.1,18.0,0000.0,0006.79,0002.46,0001.75
2023-08-05 00:58:00,SystemResetWarning,0831.3,4.99,000.00,028.7,025.7,000.0,037.0,030.2,17.8,0000.0,0006.98,0002.48,0001.75
2023-08-05 00:59:00,SystemResetWarning,0831.3,5.00,000.00,028.8,026.2,000.0,037.0,030.3,18.1,0000.0,0007.02,0002.51,0001.76
